This is the latest recevied weather packets stored in our database for station/object K5NWZ. If no packets are shown the sender has not sent any weather packets the latest 10 day(s).
| Time | Temp. | Humidity | Pressure | Rain* | Wind** | Luminosity | Snow |
|---|---|---|---|---|---|---|---|
| 1787985745 | 22.22° C | 53% | 1028.1 hPa | 0 mm | - | 0 W/m² | - |
| 1787985439 | 22.22° C | 50% | 1028 hPa | 0 mm | - | 0 W/m² | - |
| 1787985139 | 21.67° C | 49% | 1028.1 hPa | 0 mm | - | 0 W/m² | - |
| 1787984838 | 22.22° C | 49% | 1028 hPa | 0 mm | - | 0 W/m² | - |
| 1787984534 | 22.22° C | 48% | 1028 hPa | 0 mm | - | 0 W/m² | - |
| 1787984232 | 22.22° C | 48% | 1028 hPa | 0 mm | - | 0 W/m² | - |
| 1787983926 | 22.22° C | 47% | 1028 hPa | 0 mm | - | 0 W/m² | - |
| 1787983621 | 22.22° C | 47% | 1027.9 hPa | 0 mm | - | 0 W/m² | - |
| 1787983316 | 22.78° C | 47% | 1028.3 hPa | 0 mm | - | 0 W/m² | - |
| 1787983011 | 22.78° C | 47% | 1028.3 hPa | 0 mm | - | 0 W/m² | - |
| 1787982706 | 22.78° C | 46% | 1028.2 hPa | 0 mm | - | 0 W/m² | - |
| 1787982402 | 22.78° C | 45% | 1028 hPa | 0 mm | - | 0 W/m² | - |
| 1787982097 | 23.33° C | 45% | 1028.1 hPa | 0 mm | - | 0 W/m² | - |
| 1787981793 | 23.33° C | 43% | 1028.3 hPa | 0 mm | - | 0 W/m² | - |
| 1787981492 | 23.89° C | 42% | 1028.3 hPa | 0 mm | - | 0 W/m² | - |
| 1787981187 | 23.89° C | 41% | 1028.3 hPa | 0 mm | - | 0 W/m² | - |
| 1787980886 | 23.33° C | 44% | 1028.6 hPa | 0 mm | - | 0 W/m² | - |
| 1787980581 | 23.33° C | 44% | 1028.6 hPa | 0 mm | - | 0 W/m² | - |
| 1787980276 | 23.33° C | 50% | 1028.4 hPa | 0 mm | - | 0 W/m² | - |
| 1787979972 | 23.33° C | 46% | 1028.3 hPa | 0 mm | - | 0 W/m² | - |
| 1787979672 | 23.33° C | 43% | 1028.3 hPa | 0 mm | - | 0 W/m² | - |
| 1787979371 | 23.33° C | 43% | 1028.3 hPa | 0 mm | - | 0 W/m² | - |
| 1787979070 | 23.89° C | 42% | 1028.1 hPa | 0 mm | - | 0 W/m² | - |
| 1787978769 | 23.33° C | 42% | 1028.4 hPa | 0 mm | - | 0 W/m² | - |
| 1787978465 | 23.33° C | 43% | 1028.4 hPa | 0 mm | - | 0 W/m² | - |
* Rain latest hour (hover to see other rain measurements)
** Current wind speed in m/s (hover to see current wind gust speed)